Location: Gleizolles
(44.4833°N, 6.7667°E)
Time: 15:49:44
(UTC+00:00)

Tiros 1 - Pass Details

Date: 04 July 2024
Orbit: 624 x 656 km, 48.4° (Epoch: 13 July)

Event Time Altitude Azimuth Distance (km) Brightness Sun altitude
Rises 19:20:52 0° 241° (WSW) 2,904 10.9 -0.9°
Reaches altitude 10° 19:23:11 10° 240° (WSW) 1,995 10.1 -1.2°
Maximum altitude 19:27:46 79° 155° (SSE) 640 7.1 -1.9°
Drops below altitude 10° 19:32:21 10° 69° (ENE) 1,996 9.4 -2.6°
Sets 19:34:40 0° 68° (ENE) 2,905 10.2 -2.9°
